DECAYED

STARLINK-2179, 47761 (Decayed)

Orbit data source: Space-Track

STARLINK-2179, 47761 was a payload satellite owned by SpaceX/Seattle (US) in LEO that was launched on Thu, 04 Mar 2021 UTC via an FALCON 9 launch vehicle from the Air Force Eastern Test Range (AFETR). Payload-class satellites include a variety of spacecraft equipped with specific instruments for various scientific and technological missions. These include communications satellites like Starlink; space stations such as the ISS; scientific satellites like the Hubble; Earth observation satellites from companies like Planet Labs, Umbra, and HawkEye 360; GPS; miniature CubeSats for education and research; and military/defense satellites.

Not visible in the next 10 days
Identifier
47761, 2021-017AR
Orbit
Decayed
Country
Flag of USUS
Related business
Manufacturer
SpaceX/Seattle
Mission
Decayed Commercial Communications
Bus & Motor
STARLINK, Unknown motor
Mass
260 kg wet, ~248 kg dry
Launch date (UTC)
2021-03-04 (5 years ago)
Launch vehicle
FALCON 9
Launch site
Air Force Eastern Test Range (AFETR)
Object type
Payload
Rocket body
Debris
Shape & HBR
Box + 1 Pan, 10.1 m
Radar Cross Section
13.562 m², Large (>1 m²)

Expand to show TLE details & history
Last TLE update: 1 year ago

TLE from 1 year ago
0 STARLINK-2179
1 47761U 21017AR  25020.55822141  .18645591  12518-4  41125-3 0  9999
2 47761  53.0265 237.2559 0005538 257.8256 196.6615 16.46326158215236
Epoch: 2025-01-20T13:23Z
TLE epoch observation values (Epoch: 2025-01-20T13:23:50.329Z)
Latitude
52.95452°
Longitude
13.53155°
Altitude
158.912 km
Speed
7.815 km/s
True Right ascension
22h 18m 40s
True Declination
52° 46' 26"
Sunlit
Object was in daylight at epoch
Visualization orbit readout
Latitude
Unknown
Longitude
Unknown
Altitude
Unknown
Speed
Unknown
Apparent Right ascension
Unknown
Apparent Declination
Unknown
Sunlit
N/A
Visualization observer readout
Local Sidereal Time
21:32:02
Azimuth
Unknown
Elevation
Unknown
Doppler factor
Unknown
Orbital elements
Apogee altitude
152.934 km
Perigee altitude
145.705 km
Semi-major axis
6,527.456 km
Eccentricity
0.00055
Inclination
53.0265°
RAAN
237.2559°
Arg. of periapsis
257.8256°
True anomaly
196.64332°
Mean anomaly
196.6615°
Eccentric anomaly
196.65241°
Mean motion
4.11554 °/min
Orbital period
87.47 mins
BSTAR
0.00041125
Loading maneuver chart data...
Computing Atmospheric mass density...

Documentation

Showing up to 5 results
|